User: anonymous   Login
Location: Melara
(45.0500°N, 11.1833°E)
Time: 16:14:04
(UTC+00:00)
Language:

ITAMSAT 1 - Orbit

View from above orbital plane
View from above orbital plane
View from above satellite
View from above satellite

Ground track
Ground track

The orbit data is extracted from the following two-line orbital elements,

1 22826U 93061D   24148.88781293  .00000207  00000-0  96128-4 0  9993
2 22826  98.7841 201.3132 0009963 120.3984 239.8185 14.30876192599993
Epoch (UTC): 27 May 2024 21:18:27
Eccentricity: 0.0009963
inclination: 98.7841°
perigee height: 781 km
apogee height: 796 km
right ascension of ascending node: 201.3132°
argument of perigee: 120.3984°
revolutions per day: 14.30876192
mean anomaly at epoch: 239.8185°
orbit number at epoch: 59999

The dashed part of the orbit path shows where the satellite is in the earth's shadow,  

DLR